CAPE
0 0 0 0 0 0 0 1 1 0 0 1 0 0 0 0 0 6 7 8 6 14 3 5 7 6 11 8 9 9 11 7 11 3 4 6 1 0 0 0 0 0 0
0 0 0 0 0 0 0 0 0 0 0 0 0 0 0 0 0 1 5 5 1 5 7 2 5 7 6 11 12 9 10 10 11 9 6 3 5 1 0 0 0 0 0
0 0 0 0 0 0 0 0 0 0 0 0 0 0 0 0 0 0 0 1 0 1 10 0 3 4 5 9 11 7 7 7 8 11 9 6 5 2 1 0 0 0 0
0 0 0 0 0 0 0 0 0 0 0 0 0 0 0 0 0 0 3 0 0 0 2 6 1 3 7 7 11 8 7 7 8 11 9 9 7 5 6 3 0 0 0
0 0 0 0 0 0 0 0 0 0 0 0 0 0 0 0 5 0 2 1 0 0 1 1 1 4 8 7 7 8 7 4 8 4 7 9 9 6 8 8 5 0 0
0 0 0 0 0 0 0 0 0 0 0 0 0 0 0 0 6 10 1 3 0 0 0 0 0 1 0 3 6 4 5 7 6 9 12 11 12 10 9 9 7 5 3
0 0 0 0 0 0 0 0 0 0 0 0 0 0 0 0 3 8 9 2 6 3 0 0 0 1 0 0 0 0 1 4 5 12 10 9 8 10 9 7 5 8 3
0 0 0 0 0 0 0 0 0 0 0 0 0 0 0 2 1 1 2 0 0 0 0 0 0 0 0 0 1 0 0 0 2 12 3 2 3 3 9 9 8 5 0
0 0 0 0 0 0 0 0 0 0 0 0 0 0 0 0 4 0 0 0 0 0 0 0 0 0 7 4 0 0 0 0 0 4 3 3 2 9 9 2 2 2 1
0 0 0 0 0 0 0 0 0 0 0 0 0 0 0 0 5 4 0 0 0 0 0 0 5 0 5 6 0 0 0 0 0 0 0 0 0 0 2 0 0 3 3
0 0 0 0 0 0 0 0 0 0 0 0 0 0 0 0 0 4 4 0 0 0 0 0 0 5 6 8 2 0 0 0 0 0 0 0 0 0 0 0 0 0 0
0 0 0 0 0 0 0 0 0 0 0 0 0 0 0 0 0 2 4 3 0 0 0 0 0 4 4 6 1 3 0 0 0 0 0 0 0 0 0 0 0 0 0
0 0 0 0 0 0 0 0 0 0 0 0 0 0 0 0 0 0 0 0 0 0 0 0 4 4 1 0 7 5 0 0 0 0 0 0 0 0 0 0 0 0 0
0 0 0 0 0 0 0 0 0 0 0 0 0 0 0 0 0 0 0 0 0 0 0 0 0 0 0 0 0 0 0 0 0 0 0 0 0 0 0 0 0 0 0
0 0 0 0 0 0 0 0 0 0 0 0 0 0 0 0 0 0 1 0 0 0 0 0 0 0 0 0 0 0 0 0 0 0 0 0 0 0 0 0 0 0 0
0 0 0 0 0 0 0 0 0 0 0 0 0 0 0 0 1 1 3 2 1 0 0 0 0 0 0 0 0 0 0 0 0 0 0 0 0 0 0 0 0 0 0
0 0 0 0 0 0 0 0 0 0 0 1 0 0 1 1 1 3 3 0 1 0 0 0 0 0 0 0 0 0 0 0 0 0 0 0 0 0 0 1 0 0 0
0 0 0 0 0 0 0 0 0 0 0 0 0 0 0 0 1 2 0 0 0 0 0 0 0 0 0 0 0 0 0 0 0 1 0 0 0 0 0 2 2 0 0
0 0 0 0 0 0 0 0 0 0 0 0 0 0 0 0 1 0 0 0 0 0 0 0 0 0 0 0 0 0 0 0 0 0 0 0 0 1 0 0 1 1 0
0 0 0 0 0 0 0 0 0 0 0 0 0 0 0 0 0 0 0 0 0 0 0 0 0 0 0 0 0 0 0 0 0 0 0 0 0 0 0 0 0 2 4
0 0 0 0 0 0 0 0 0 0 0 0 0 0 0 0 0 0 0 0 0 0 0 0 0 0 0 0 0 0 0 0 0 0 0 0 0 0 0 0 0 4 8
0 0 0 0 0 0 0 0 0 0 0 0 0 0 0 0 0 0 0 0 0 0 0 0 0 0 0 0 0 0 0 0 0 0 0 0 0 0 0 0 0 0 0
0 0 0 0 0 0 0 0 0 0 0 0 0 0 0 0 0 0 0 0 0 0 0 0 0 0 0 0 0 0 0 0 0 0 0 0 0 0 0 0 0 0 0
0 0 0 0 0 0 0 0 0 0 0 0 0 0 0 0 0 0 0 0 0 0 0 0 0 0 0 0 0 0 0 0 0 0 0 0 0 0 0 0 0 0 0
0 0 0 0 0 0 0 0 0 0 0 0 0 0 0 0 0 0 0 0 0 0 0 0 0 0 0 0 0 0 0 0 0 0 0 0 0 0 0 0 0 0 0
0 0 0 0 0 0 0 0 0 0 0 0 0 0 0 0 0 0 0 0 0 0 0 0 0 0 0 0 0 0 0 0 0 0 0 0 0 0 0 0 0 0 0
CIN
-0 -2 0 0 -6 -1 -5 -4 -6 0 0 -1 0 0 0 0 0 0 0 0 0 0 0 0 0 0 0 0 0 0 0 0 0 0 0 0 0 0 0 0 0 0 0
-0 0 0 0 0 0 0 0 0 0 0 0 0 0 0 0 0 -0 0 -0 0 0 0 0 0 0 0 0 0 0 0 0 0 0 0 0 0 0 0 0 0 0 0
-2 0 0 0 0 0 0 0 0 0 0 0 0 0 0 0 0 0 0 0 0 0 0 0 0 0 0 0 0 0 0 0 0 0 0 0 0 0 0 0 0 0 0
0 0 0 0 0 0 0 0 0 0 0 0 0 0 0 0 0 0 0 0 0 0 0 0 -0 0 0 0 0 0 0 0 0 0 0 0 0 0 0 0 0 0 0
0 0 0 0 0 0 0 0 0 0 0 0 0 0 0 0 0 0 0 0 0 0 0 0 -0 -0 0 0 0 0 0 0 0 0 0 0 0 0 0 0 0 -0 0
0 0 0 0 0 0 0 0 0 0 0 0 0 0 0 0 0 -0 0 0 0 0 0 0 0 -0 0 0 0 0 0 0 0 0 0 0 0 0 0 0 0 0 0
0 0 0 0 0 0 0 0 0 0 0 0 0 0 0 0 0 0 0 -0 0 0 0 0 0 0 0 0 0 0 0 -0 -0 0 0 0 0 0 0 0 0 0 -0
0 0 0 0 0 0 0 0 0 0 0 0 0 0 0 -1 0 0 0 -0 0 0 0 0 0 0 -3 0 0 0 0 0 -1 -0 -1 -1 -0 -0 0 0 0 -0 0
0 0 0 0 0 0 0 0 0 0 0 0 0 0 0 0 0 0 0 0 0 0 0 0 0 0 -0 0 0 0 0 0 0 0 -0 0 0 0 -0 -0 -0 -0 -0
0 0 0 0 0 0 0 0 0 0 0 0 0 0 0 0 -0 0 0 0 0 0 0 0 0 0 0 0 0 0 0 0 0 0 0 0 0 0 0 0 0 0 -0
0 0 0 0 0 0 0 0 0 0 -0 0 0 0 0 0 0 0 0 0 0 0 0 0 0 -0 0 0 -0 0 0 0 0 0 0 0 0 0 0 0 0 0 0
0 0 0 0 0 0 0 0 -4 0 0 -0 0 0 0 0 0 0 0 -0 0 0 0 0 0 0 0 0 -0 0 0 0 0 0 0 0 0 0 0 0 0 0 0
0 0 0 0 0 0 0 0 0 0 0 0 0 0 0 0 0 0 -0 -0 -0 0 0 0 -0 0 0 0 0 0 0 0 0 0 0 0 0 0 0 0 0 0 0
0 0 0 0 0 0 0 0 0 0 0 0 0 0 0 0 0 0 0 0 0 0 0 0 0 0 0 0 0 0 0 0 0 0 0 0 0 0 0 0 0 0 0
0 0 0 0 0 0 0 0 0 0 0 0 0 0 0 0 0 -0 -1 0 0 0 0 0 0 0 0 0 0 0 0 0 0 0 0 0 0 0 0 0 0 0 0
0 0 0 0 0 0 0 0 0 0 0 0 0 0 0 -0 0 -0 -0 -0 0 0 0 0 0 0 0 0 0 0 0 0 0 0 0 -1 0 0 0 0 0 0 0
0 0 0 0 0 0 0 0 0 0 -0 -0 0 0 -0 -0 -0 0 0 0 0 0 0 0 0 0 0 0 0 0 -0 0 -0 -0 0 0 0 0 -0 -1 -0 -1 0
0 0 0 0 0 0 0 0 0 0 0 0 0 0 0 -1 -0 0 0 0 0 0 0 0 0 0 -0 0 0 0 0 0 -0 -0 0 0 0 -0 -0 -0 -0 -0 0
0 0 0 0 0 0 0 0 0 0 0 0 0 0 0 -0 -0 0 0 0 0 0 0 0 0 0 0 0 0 0 0 0 0 0 0 0 0 0 -0 -0 -1 -1 -0
0 0 0 0 0 0 0 0 0 0 0 0 0 0 0 0 0 0 0 0 0 0 0 0 0 0 0 0 0 0 0 0 0 0 0 0 0 0 0 -0 0 -1 0
0 0 0 0 0 0 0 0 0 0 0 0 0 0 0 0 0 0 0 0 0 0 0 0 0 0 0 0 0 0 0 0 0 0 0 0 0 0 0 0 0 -0 0
0 0 0 0 0 0 0 0 0 0 0 0 0 0 0 0 0 0 0 0 0 0 0 0 0 0 0 0 0 0 0 0 0 0 0 0 0 0 0 0 0 0 0
0 0 0 0 0 0 0 0 0 0 0 0 0 0 0 0 0 0 0 0 0 0 0 0 0 0 0 0 0 0 0 0 0 0 0 0 0 0 0 0 0 0 0
0 0 0 0 0 0 0 0 0 0 0 0 0 0 0 0 0 0 0 0 0 0 0 0 0 0 0 0 0 0 0 0 0 0 0 0 0 0 0 0 0 0 0
0 0 0 0 0 0 0 0 0 0 0 0 0 0 0 0 0 0 0 0 0 0 0 0 0 0 0 0 0 0 0 0 0 0 0 0 0 0 0 0 0 0 0
0 0 0 0 0 0 0 0 0 0 0 0 0 0 0 0 0 0 0 0 0 0 0 0 0 0 0 0 0 0 0 0 0 0 0 0 0 0 0 0 0 0 0
Wind_Speed
5 3 4 5 6 5 4 2 2 3 5 7 10 10 11 11 12 9 8 9 11 10 11 12 13 12 7 7 7 7 7 7 6 8 8 10 14 13 13 12 10 8 9
4 4 4 7 7 6 5 6 6 6 6 10 10 11 11 11 12 11 10 10 12 13 12 13 13 10 12 9 7 10 8 8 8 11 10 10 12 13 13 12 11 11 10
4 6 6 6 7 6 6 6 7 7 7 11 12 12 12 11 11 11 10 12 13 14 12 15 14 13 12 11 10 10 10 9 8 7 8 9 10 12 12 11 12 13 11
7 6 6 6 7 6 6 8 10 10 10 11 12 12 11 11 11 10 10 12 14 13 14 10 14 15 15 14 11 12 11 10 10 8 8 9 10 14 10 13 14 12 12
7 6 6 7 7 8 8 9 9 10 10 11 11 11 10 10 10 10 11 12 13 13 12 13 14 20 24 20 10 12 13 10 9 10 9 8 11 13 16 12 11 12 10
7 7 8 8 8 7 8 9 9 8 9 10 10 11 12 10 21 19 13 11 13 14 14 12 12 18 19 22 23 23 19 13 13 10 9 12 13 13 12 11 11 13 8
9 8 7 8 7 6 7 8 6 7 9 10 10 10 11 13 21 22 19 11 11 10 10 11 12 12 16 14 18 20 20 23 21 12 13 12 11 14 14 13 14 11 9
8 8 6 8 7 6 6 4 4 5 4 4 9 9 10 13 23 21 18 11 9 9 9 9 11 11 17 16 12 12 12 12 14 11 12 12 12 13 14 11 13 12 9
8 7 6 7 6 6 4 4 3 5 5 7 8 10 10 8 22 21 12 6 7 6 9 9 10 10 24 25 13 13 12 13 15 22 22 22 23 24 22 11 14 12 9
9 7 7 7 6 4 4 3 1 4 8 8 9 6 17 9 19 20 13 4 6 6 8 9 21 17 24 25 12 13 13 13 11 12 12 14 16 16 24 13 10 12 11
10 9 8 6 5 4 4 2 2 4 8 9 10 8 7 9 10 19 19 4 5 5 6 7 6 22 23 23 23 14 16 10 12 11 10 10 11 13 12 11 12 9 10
9 8 6 5 5 4 4 2 3 6 8 8 8 6 4 5 15 17 19 17 14 4 4 3 5 21 22 23 16 25 24 11 8 10 11 12 11 12 13 12 13 11 8
8 5 4 6 5 6 7 7 5 7 6 6 6 3 3 4 4 12 15 16 13 4 4 13 17 18 18 11 23 23 11 9 8 10 10 9 9 9 11 13 12 13 12
9 7 5 5 7 7 6 5 5 4 5 6 5 3 2 3 3 3 3 4 7 6 5 6 7 10 8 6 7 9 7 6 7 7 7 7 8 9 9 10 10 12 12
10 8 8 7 9 7 6 4 6 3 6 5 2 2 2 3 4 10 8 2 5 6 6 4 4 4 4 5 5 6 5 7 8 6 8 9 10 9 10 10 10 10 10
10 8 7 6 7 7 7 6 12 12 14 13 10 5 3 9 14 12 14 16 16 15 5 3 3 3 5 7 8 8 8 10 9 9 9 9 10 9 11 9 9 9 11
8 7 8 8 7 7 6 6 6 5 10 9 9 8 8 9 11 14 14 15 17 12 4 4 3 3 6 8 8 9 10 10 11 9 9 9 9 10 11 9 10 10 11
7 9 7 6 6 6 5 6 5 6 4 1 6 7 9 5 12 14 14 12 6 9 6 6 6 7 8 8 8 8 8 8 9 9 9 9 9 10 10 11 10 12 12
10 6 6 4 4 4 3 3 4 5 6 4 2 4 6 11 14 16 17 6 4 5 6 6 6 7 7 7 5 6 5 7 7 7 8 8 9 9 10 10 10 14 13
8 10 7 5 3 3 3 4 4 5 7 4 2 1 3 4 4 4 4 3 5 6 5 6 6 5 5 6 4 5 6 7 8 8 7 8 8 8 9 10 11 12 12
5 6 6 4 4 4 4 4 4 5 6 4 2 1 3 4 3 4 4 4 4 4 4 4 3 2 3 3 6 6 5 5 7 7 8 8 8 8 9 10 11 11 12
5 4 6 5 4 4 4 4 4 4 5 5 1 2 7 3 4 4 4 4 2 3 2 2 3 2 2 4 5 4 4 3 5 7 8 8 8 9 9 10 11 10 12
5 6 6 5 4 5 5 5 4 4 4 4 4 4 3 3 3 4 4 2 3 3 3 2 2 2 2 2 2 3 3 5 6 7 7 8 8 8 9 9 10 10 10
7 7 7 5 3 5 5 4 3 4 4 4 4 3 3 3 3 4 3 2 3 3 3 2 2 3 2 3 1 2 2 3 4 6 7 8 9 10 9 10 10 11 10
6 6 6 5 5 4 5 5 4 3 4 4 4 3 3 4 3 3 3 3 2 3 4 3 2 3 4 5 2 6 5 8 7 7 7 9 10 12 10 9 9 10 11
6 6 5 4 4 4 4 4 4 4 4 3 3 3 3 4 3 3 3 3 3 3 3 3 4 5 7 3 6 7 7 9 8 10 7 8 8 9 9 8 10 9 11
Wind_Direction
101 125 119 100 110 100 91 57 77 337 357 28 54 36 30 18 10 3 30 32 33 33 34 24 12 6 8 8 6 356 352 336 307 315 311 327 343 2 346 340 342 345 345
164 154 98 72 73 70 63 50 40 24 33 47 59 39 30 20 17 353 36 31 33 27 38 25 13 8 6 10 14 5 356 349 336 328 329 349 353 355 338 342 342 353 336
158 89 79 79 75 68 61 51 42 33 39 51 43 48 26 22 13 2 37 36 35 29 26 30 11 9 7 10 18 13 3 359 348 343 344 344 351 353 352 356 352 345 341
88 87 80 74 76 65 61 61 52 42 35 61 48 37 31 18 13 5 46 49 39 30 20 32 19 15 16 14 18 17 8 5 0 1 357 353 357 357 357 355 353 351 337
106 90 88 78 68 66 67 64 61 51 45 62 51 39 30 28 20 43 53 58 46 36 24 23 21 25 25 24 22 16 12 11 8 12 11 2 4 360 6 347 344 339 333
104 94 84 77 69 68 71 69 68 58 56 53 56 38 37 34 32 46 57 61 55 38 29 21 23 24 25 24 29 26 22 16 12 13 11 10 8 2 353 348 350 355 359
108 102 96 94 83 72 79 81 77 71 67 59 52 40 39 38 40 40 51 55 52 40 30 24 25 21 31 20 22 26 23 17 23 19 16 15 3 357 354 349 355 348 333
94 96 101 107 100 85 78 93 91 86 83 74 58 40 31 43 45 44 43 54 52 35 18 23 24 17 34 26 22 24 21 15 21 26 22 14 9 360 6 351 348 338 323
100 96 95 104 100 95 84 79 92 101 83 73 74 54 37 19 52 48 38 48 44 26 18 3 42 23 33 33 24 26 22 18 11 21 20 17 16 11 14 358 9 5 356
124 124 120 113 115 116 130 118 115 107 106 90 73 52 48 21 45 54 48 31 36 28 17 11 30 34 36 38 29 25 25 7 1 7 11 8 8 3 7 13 359 5 356
145 143 135 130 131 136 128 105 99 93 118 100 82 57 39 36 22 46 52 37 34 19 27 15 10 36 33 39 38 34 28 359 0 14 8 7 5 2 2 0 2 -0 355
119 130 141 145 136 137 127 88 80 90 92 98 90 67 22 6 41 37 43 43 36 17 16 344 17 39 35 34 39 35 26 13 14 18 12 9 3 357 352 351 353 351 347
124 122 129 141 116 86 81 63 60 66 89 88 88 75 357 345 347 26 31 32 22 14 35 39 38 44 37 23 33 34 24 20 17 20 14 4 355 339 338 352 352 347 345
146 152 134 110 104 88 83 77 74 73 79 95 88 80 353 333 336 341 345 355 11 33 34 29 17 31 32 19 20 18 16 15 12 13 5 353 349 356 355 359 350 351 347
162 150 128 114 108 106 91 92 90 71 100 103 113 134 86 351 15 32 26 37 50 47 39 23 13 8 13 16 8 8 8 9 15 8 6 3 358 355 352 359 354 351 354
148 147 143 130 128 123 127 117 109 106 98 95 105 109 333 57 48 35 45 54 53 56 41 40 8 2 17 22 14 11 9 10 11 8 6 2 360 354 346 355 355 355 349
146 149 149 149 144 147 144 142 137 116 112 107 79 76 69 62 57 51 50 49 51 49 58 24 14 1 24 25 16 11 4 6 2 5 4 357 353 348 347 350 353 350 347
108 99 105 114 120 134 157 163 156 156 138 327 75 64 41 27 70 62 58 53 41 34 37 35 27 27 27 23 15 7 357 358 7 1 357 350 347 346 345 345 349 348 345
110 105 104 103 110 127 119 111 141 152 151 121 15 11 12 59 72 67 62 58 45 40 36 36 31 31 29 19 8 355 337 3 3 351 350 345 343 341 339 341 339 346 341
111 122 120 127 125 109 113 105 93 97 114 122 92 55 351 51 58 59 52 55 50 44 35 34 24 34 30 10 355 350 352 6 357 350 346 340 335 333 332 335 334 345 343
115 140 146 126 124 114 111 112 111 101 121 118 135 197 80 90 80 82 73 59 56 44 39 31 1 19 25 3 359 347 360 356 349 341 337 333 331 330 331 332 327 342 339
126 120 120 114 100 104 110 103 108 105 118 141 149 86 88 81 84 94 80 77 63 49 19 46 4 31 26 12 347 328 4 336 337 335 329 327 327 326 327 325 322 339 335
144 127 116 114 118 110 97 95 94 106 111 107 125 109 98 105 101 100 102 110 76 47 356 22 16 356 357 325 324 12 345 336 326 326 321 322 319 321 320 317 314 334 330
130 126 130 136 137 124 124 121 115 111 114 118 115 119 117 122 117 120 114 101 67 18 353 350 353 349 332 328 8 304 291 295 318 313 311 308 312 315 316 314 319 326 320
118 116 123 131 127 135 141 151 154 152 128 124 116 116 116 113 98 96 107 90 66 22 329 340 335 331 330 332 348 329 322 336 314 311 315 308 305 305 301 301 311 319 320
130 135 142 146 148 155 147 143 142 129 127 126 124 120 120 117 118 101 113 72 36 354 340 332 325 328 329 329 355 353 340 323 322 314 309 313 312 313 311 313 314 320 321